Location: Peterborough
(44.3091°N, 78.3197°W)
Time: 23:40:36
(UTC-04:00)

SR - Pass Details

Date: 31 March 2023
Orbit: 581 x 867 km, 66.7° (Epoch: 02 June)

Event Time Altitude Azimuth Distance (km) Brightness Sun altitude
Rises 10:58:21 0° 325° (NW) 2,822 ? 39.6°
Reaches altitude 10° 11:00:34 10° 322° (NW) 1,934 ? 39.9°
Maximum altitude 11:04:49 61° 242° (WSW) 698 ? 40.4°
Drops below altitude 10° 11:09:19 10° 162° (SSE) 2,037 ? 41.0°
Sets 11:11:42 0° 159° (SSE) 2,988 ? 41.3°
